This is the latest recevied weather packets stored in our database for station/object KB1WCR. If no packets are shown the sender has not sent any weather packets the latest 10 day(s).
| Time | Temp. | Humidity | Pressure | Rain* | Wind** | Luminosity | Snow |
|---|---|---|---|---|---|---|---|
| 1777860869 | 1.67° C | 85% | 1007.9 hPa | 0 mm | - | 0 W/m² | - |
| 1777860566 | 2.22° C | 83% | 1007.9 hPa | 0 mm | - | 0 W/m² | - |
| 1777860263 | 2.22° C | 82% | 1007.8 hPa | 0 mm | - | 0 W/m² | - |
| 1777859960 | 2.22° C | 81% | 1007.7 hPa | 0 mm | - | 0 W/m² | - |
| 1777859656 | 2.22° C | 80% | 1007.8 hPa | 0 mm | - | 0 W/m² | - |
| 1777859352 | 2.78° C | 80% | 1007.7 hPa | 0 mm | - | 0 W/m² | - |
| 1777859048 | 2.78° C | 80% | 1007.9 hPa | 0 mm | - | 0 W/m² | - |
| 1777858745 | 3.33° C | 78% | 1007.8 hPa | 0 mm | - | 0 W/m² | - |
| 1777858443 | 3.33° C | 78% | 1007.5 hPa | 0 mm | - | 0 W/m² | - |
| 1777858139 | 3.89° C | 77% | 1007.8 hPa | 0 mm | - | 0 W/m² | - |
| 1777857837 | 3.89° C | 75% | 1007.7 hPa | 0 mm | - | 0 W/m² | - |
| 1777857534 | 4.44° C | 72% | 1007.6 hPa | 0 mm | - | 0 W/m² | - |
| 1777857231 | 5° C | 71% | 1007.6 hPa | 0 mm | - | 0 W/m² | - |
| 1777856927 | 5.56° C | 66% | 1007.4 hPa | 0 mm | - | 0 W/m² | - |
| 1777856623 | 6.11° C | 64% | 1007.4 hPa | 0 mm | - | 0 W/m² | - |
| 1777856320 | 6.67° C | 63% | 1007.2 hPa | 0 mm | - | 0 W/m² | - |
| 1777856016 | 6.67° C | 63% | 1007.3 hPa | 0 mm | - | 0 W/m² | - |
| 1777855714 | 6.67° C | 61% | 1007.3 hPa | 0 mm | - | 0 W/m² | - |
| 1777855411 | 7.22° C | 61% | 1007.3 hPa | 0 mm | - | 0 W/m² | - |
| 1777855107 | 7.22° C | 60% | 1007.1 hPa | 0 mm | - | 0 W/m² | - |
| 1777854805 | 7.22° C | 60% | 1007.1 hPa | 0 mm | - | 0 W/m² | - |
| 1777854501 | 7.78° C | 59% | 1006.9 hPa | 0 mm | - | 0 W/m² | - |
| 1777854198 | 7.78° C | 58% | 1006.8 hPa | 0 mm | - | 0 W/m² | - |
| 1777853896 | 7.78° C | 57% | 1006.6 hPa | 0 mm | - | 0 W/m² | - |
| 1777853593 | 7.78° C | 57% | 1006.7 hPa | 0 mm | - | 0 W/m² | - |
* Rain latest hour (hover to see other rain measurements)
** Current wind speed in m/s (hover to see current wind gust speed)